| time (UTC) | temp C | wind direction | speed KPH | gust KPH | rain 1hr cm | rain 24hr cm | rain mn cm | humidity % | barometer mb |
| 20260903063103 | 14 | 85 | 0.0 | 0.0 | 0.00 | 0.00 | 0.00 | 95 | 1014.8 |
| 20260903061544 | 14 | 83 | 0.0 | 0.0 | 0.00 | 0.00 | 0.00 | 95 | 1015.0 |
| 20260903054553 | 15 | 123 | 0.0 | 0.0 | 0.00 | 0.00 | 0.00 | 94 | 1015.5 |
| 20260903053110 | 15 | 175 | 0.0 | 0.0 | 0.00 | 0.00 | 0.00 | 93 | 1015.8 |
| 20260903051557 | 15 | 144 | 0.0 | 0.0 | 0.00 | 0.00 | 0.00 | 92 | 1016.1 |
| 20260903050044 | 15 | 43 | 0.0 | 0.0 | 0.00 | 0.00 | 0.00 | 92 | 1016.1 |
| 20260903044551 | 15 | 29 | 0.0 | 0.0 | 0.00 | 0.00 | 0.00 | 91 | 1016.0 |
| 20260903043100 | 15 | 57 | 0.0 | 0.0 | 0.00 | 0.00 | 0.00 | 90 | 1016.1 |
| 20260903041605 | 15 | 75 | 0.0 | 0.0 | 0.00 | 0.00 | 0.00 | 89 | 1016.4 |
| 20260903040041 | 15 | 108 | 0.0 | 0.0 | 0.00 | 0.00 | 0.00 | 89 | 1016.9 |
| 20260903034518 | 15 | 108 | 0.0 | 0.0 | 0.00 | 0.00 | 0.00 | 89 | 1016.7 |
| 20260903033049 | 15 | 105 | 0.0 | 0.0 | 0.00 | 0.00 | 0.00 | 89 | 1016.7 |
| 20260903031546 | 15 | 63 | 0.0 | 0.0 | 0.00 | 0.00 | 0.00 | 90 | 1016.8 |
| 20260903030048 | 15 | 87 | 0.0 | 0.0 | 0.00 | 0.00 | 0.00 | 90 | 1016.9 |
| 20260903024546 | 16 | 74 | 0.0 | 0.0 | 0.00 | 0.00 | 0.00 | 91 | 1017.1 |
| 20260903023134 | 16 | 64 | 0.0 | 0.0 | 0.00 | 0.00 | 0.00 | 92 | 1017.2 |
| 20260903021601 | 16 | 84 | 0.0 | 0.0 | 0.00 | 0.00 | 0.00 | 92 | 1017.6 |
| 20260903020051 | 16 | 92 | 0.0 | 0.0 | 0.00 | 0.00 | 0.00 | 91 | 1017.6 |
| 20260903014613 | 16 | 89 | 0.0 | 0.0 | 0.00 | 0.00 | 0.00 | 91 | 1018.2 |
| 20260903013059 | 16 | 59 | 0.0 | 0.0 | 0.00 | 0.00 | 0.00 | 91 | 1018.3 |
| 20260903011525 | 16 | 65 | 0.0 | 0.0 | 0.00 | 0.00 | 0.00 | 91 | 1018.0 |
| 20260903010112 | 16 | 125 | 0.0 | 0.0 | 0.00 | 0.00 | 0.00 | 92 | 1018.0 |
| 20260903004608 | 16 | 30 | 0.0 | 0.0 | 0.00 | 0.00 | 0.00 | 92 | 1017.9 |
| 20260903003109 | 16 | 24 | 0.0 | 0.0 | 0.00 | 0.00 | 0.00 | 92 | 1017.7 |
| 20260903001547 | 16 | 85 | 0.0 | 0.0 | 0.00 | 0.00 | 0.00 | 91 | 1017.2 |
| 20260903000047 | 16 | 73 | 0.0 | 0.0 | 0.00 | 0.00 | 0.00 | 92 | 1017.5 |
| 20260902234511 | 16 | 73 | 0.0 | 0.0 | 0.00 | 0.00 | 0.00 | 91 | 1017.8 |
| 20260902233014 | 16 | 71 | 0.0 | 0.0 | 0.00 | 0.00 | 0.00 | 90 | 1017.9 |
| 20260902231558 | 16 | 71 | 0.0 | 0.0 | 0.00 | 0.00 | 0.00 | 90 | 1018.0 |
| 20260902230058 | 17 | 92 | 0.0 | 0.0 | 0.00 | 0.00 | 0.00 | 90 | 1018.6 |
| 20260902224539 | 17 | 121 | 0.0 | 0.0 | 0.00 | 0.00 | 0.00 | 89 | 1018.8 |
| 20260902223045 | 17 | 13 | 0.0 | 0.0 | 0.00 | 0.00 | 0.00 | 89 | 1019.1 |
| 20260902221537 | 17 | 86 | 0.0 | 0.0 | 0.00 | 0.00 | 0.00 | 89 | 1019.3 |
| 20260902220003 | 17 | 89 | 0.0 | 0.0 | 0.00 | 0.00 | 0.00 | 89 | 1019.2 |
| 20260902214518 | 17 | 89 | 0.0 | 0.0 | 0.00 | 0.00 | 0.00 | 89 | 1019.4 |
| 20260902213104 | 17 | 63 | 0.0 | 0.0 | 0.00 | 0.00 | 0.00 | 90 | 1019.2 |
| 20260902211547 | 17 | 68 | 0.0 | 0.0 | 0.00 | 0.00 | 0.00 | 90 | 1019.3 |
| 20260902210032 | 17 | 107 | 0.0 | 0.0 | 0.00 | 0.00 | 0.00 | 89 | 1019.1 |
| 20260902204553 | 17 | 96 | 0.0 | 0.0 | 0.00 | 0.00 | 0.00 | 89 | 1019.2 |
| 20260902203055 | 17 | 95 | 0.0 | 0.0 | 0.00 | 0.00 | 0.00 | 89 | 1019.4 |
| 20260902201547 | 17 | 125 | 0.0 | 0.0 | 0.00 | 0.00 | 0.00 | 89 | 1019.1 |
| 20260902200044 | 17 | 107 | 0.0 | 0.0 | 0.00 | 0.00 | 0.00 | 88 | 1019.4 |
| 20260902194536 | 17 | 104 | 0.0 | 0.0 | 0.00 | 0.00 | 0.00 | 88 | 1019.8 |
| 20260902193038 | 17 | 90 | 0.0 | 0.0 | 0.00 | 0.00 | 0.00 | 88 | 1019.8 |
| 20260902191539 | 17 | 114 | 0.0 | 0.0 | 0.00 | 0.00 | 0.00 | 88 | 1019.9 |
| 20260902190052 | 17 | 87 | 0.0 | 0.0 | 0.00 | 0.00 | 0.00 | 89 | 1020.0 |
| 20260902184551 | 16 | 94 | 0.0 | 0.0 | 0.00 | 0.03 | 0.00 | 89 | 1020.0 |
| 20260902183036 | 16 | 82 | 0.0 | 0.0 | 0.00 | 0.03 | 0.00 | 89 | 1020.4 |
| 20260902181530 | 16 | 149 | 0.0 | 0.0 | 0.00 | 0.03 | 0.00 | 89 | 1020.4 |
| 20260902180057 | 17 | 55 | 0.0 | 0.0 | 0.00 | 0.03 | 0.00 | 88 | 1020.0 |
| 20260902174544 | 17 | 130 | 0.0 | 0.0 | 0.00 | 0.08 | 0.00 | 88 | 1020.3 |
| 20260902173039 | 17 | 82 | 0.0 | 0.0 | 0.00 | 0.08 | 0.00 | 88 | 1020.3 |
| 20260902171552 | 17 | 139 | 0.0 | 0.0 | 0.00 | 0.08 | 0.00 | 88 | 1020.4 |
| 20260902170041 | 16 | 86 | 0.0 | 0.0 | 0.00 | 0.08 | 0.00 | 87 | 1020.4 |
| 20260902164547 | 16 | 109 | 0.0 | 0.0 | 0.00 | 0.08 | 0.00 | 85 | 1020.7 |
| 20260902163043 | 16 | 244 | 0.0 | 0.0 | 0.00 | 0.08 | 0.00 | 85 | 1020.7 |
| 20260902161510 | 16 | 78 | 0.0 | 0.0 | 0.00 | 0.08 | 0.00 | 85 | 1020.7 |
| 20260902160116 | 16 | 232 | 0.0 | 0.0 | 0.00 | 0.08 | 0.00 | 87 | 1020.9 |
| 20260902154543 | 16 | 143 | 0.0 | 0.0 | 0.00 | 0.28 | 0.00 | 87 | 1021.0 |
| 20260902153044 | 16 | 117 | 0.0 | 0.0 | 0.00 | 0.28 | 0.00 | 89 | 1021.2 |
| 20260902151505 | 15 | 41 | 0.0 | 0.0 | 0.00 | 0.28 | 0.00 | 90 | 1021.3 |
| 20260902150053 | 15 | 83 | 0.0 | 0.0 | 0.00 | 0.28 | 0.00 | 89 | 1021.6 |
| 20260902144550 | 15 | 74 | 0.0 | 0.0 | 0.00 | 0.28 | 0.00 | 91 | 1021.6 |
| 20260902143027 | 15 | 208 | 0.0 | 0.0 | 0.00 | 0.28 | 0.00 | 91 | 1021.6 |
| 20260902141503 | 15 | 128 | 0.0 | 0.0 | 0.00 | 0.28 | 0.00 | 92 | 1021.3 |
| 20260902140047 | 15 | 134 | 0.0 | 0.0 | 0.00 | 0.28 | 0.00 | 93 | 1021.2 |
| 20260902134539 | 15 | 121 | 0.0 | 0.0 | 0.00 | 0.28 | 0.00 | 92 | 1021.3 |
| 20260902133005 | 15 | 121 | 0.0 | 0.0 | 0.00 | 0.28 | 0.00 | 92 | 1021.0 |
| 20260902131543 | 15 | 121 | 0.0 | 0.0 | 0.00 | 0.28 | 0.00 | 92 | 1020.7 |
| 20260902130045 | 15 | 85 | 0.0 | 0.0 | 0.00 | 0.28 | 0.00 | 92 | 1020.8 |
| 20260902124539 | 14 | 83 | 0.0 | 0.0 | 0.00 | 0.28 | 0.00 | 93 | 1020.8 |
| 20260902123022 | 14 | 83 | 0.0 | 0.0 | 0.00 | 0.28 | 0.00 | 95 | 1020.7 |
| 20260902121527 | 14 | 83 | 0.0 | 0.0 | 0.00 | 0.28 | 0.00 | 96 | 1020.7 |
| 20260902120049 | 14 | 88 | 0.0 | 0.0 | 0.00 | 0.28 | 0.00 | 97 | 1020.6 |
| 20260902114525 | 14 | 88 | 0.0 | 0.0 | 0.00 | 0.51 | 0.00 | 97 | 1020.6 |
| 20260902113008 | 13 | 88 | 0.0 | 0.0 | 0.00 | 0.51 | 0.00 | 97 | 1020.8 |
| 20260902111556 | 13 | 88 | 0.0 | 0.0 | 0.00 | 0.51 | 0.00 | 97 | 1021.0 |
| 20260902110052 | 13 | 88 | 0.0 | 0.0 | 0.00 | 0.51 | 0.00 | 97 | 1020.9 |
| 20260902104607 | 13 | 88 | 0.0 | 0.0 | 0.00 | 0.69 | 0.00 | 97 | 1020.6 |
| 20260902103010 | 13 | 88 | 0.0 | 0.0 | 0.00 | 0.69 | 0.00 | 97 | 1020.5 |
| 20260902101503 | 13 | 88 | 0.0 | 0.0 | 0.00 | 0.69 | 0.00 | 97 | 1020.5 |
| 20260902100133 | 13 | 88 | 0.0 | 0.0 | 0.00 | 0.69 | 0.00 | 97 | 1020.2 |
| 20260902094503 | 13 | 88 | 0.0 | 0.0 | 0.00 | 0.69 | 0.00 | 97 | 1020.0 |
| 20260902093100 | 13 | 88 | 0.0 | 0.0 | 0.00 | 0.69 | 0.00 | 97 | 1019.9 |
| 20260902091539 | 13 | 88 | 0.0 | 0.0 | 0.00 | 0.69 | 0.00 | 97 | 1019.7 |
| 20260902090005 | 13 | 88 | 0.0 | 0.0 | 0.00 | 0.69 | 0.00 | 97 | 1019.7 |
| 20260902084604 | 13 | 88 | 0.0 | 0.0 | 0.00 | 0.69 | 0.00 | 97 | 1019.3 |
| 20260902083039 | 13 | 88 | 0.0 | 0.0 | 0.00 | 0.69 | 0.00 | 97 | 1019.4 |
| 20260902081509 | 13 | 88 | 0.0 | 0.0 | 0.00 | 0.69 | 0.00 | 97 | 1019.3 |
| 20260902080027 | 13 | 88 | 0.0 | 0.0 | 0.00 | 0.69 | 0.00 | 97 | 1019.3 |
| 20260902074525 | 13 | 88 | 0.0 | 0.0 | 0.00 | 0.69 | 0.00 | 97 | 1019.6 |
| 20260902073013 | 13 | 88 | 0.0 | 0.0 | 0.00 | 0.69 | 0.00 | 97 | 1019.7 |
| 20260902071630 | 13 | 88 | 0.0 | 0.0 | 0.00 | 0.69 | 0.00 | 97 | 1019.5 |
| 20260902070105 | 13 | 88 | 0.0 | 0.0 | 0.00 | 0.69 | 0.00 | 97 | 1019.3 |
| 20260902064539 | 14 | 88 | 0.0 | 0.0 | 0.00 | 0.69 | 0.00 | 97 | 1019.4 |